| time (UTC) | temp C | wind direction | speed KPH | gust KPH | rain 1hr cm | rain 24hr cm | rain mn cm | humidity % | barometer mb |
| 20260901175806 | 30 | 199 | 3.2 | 8.0 | 0.00 | 0.00 | 0.00 | 77 | 1013.5 |
| 20260901174806 | 30 | 234 | 1.6 | 4.8 | 0.00 | 0.00 | 0.00 | 74 | 1013.6 |
| 20260901174306 | 30 | 261 | 0.0 | 3.2 | 0.00 | 0.00 | 0.00 | 74 | 1013.6 |
| 20260901173806 | 30 | 262 | 1.6 | 4.8 | 0.00 | 0.00 | 0.00 | 74 | 1013.6 |
| 20260901173307 | 30 | 250 | 1.6 | 4.8 | 0.00 | 0.00 | 0.00 | 74 | 1013.6 |
| 20260901171806 | 30 | 280 | 1.6 | 4.8 | 0.00 | 0.00 | 0.00 | 76 | 1013.8 |
| 20260901170806 | 30 | 288 | 0.0 | 0.0 | 0.00 | 0.00 | 0.00 | 76 | 1013.9 |
| 20260901170306 | 30 | 288 | 0.0 | 0.0 | 0.00 | 0.00 | 0.00 | 76 | 1014.1 |
| 20260901165806 | 30 | 231 | 0.0 | 0.0 | 0.00 | 0.00 | 0.00 | 75 | 1014.2 |
| 20260901164807 | 30 | 215 | 1.6 | 4.8 | 0.00 | 0.00 | 0.00 | 76 | 1014.1 |
| 20260901163806 | 31 | 252 | 0.0 | 4.8 | 0.00 | 0.00 | 0.00 | 72 | 1014.3 |
| 20260901162806 | 31 | 246 | 3.2 | 9.7 | 0.00 | 0.00 | 0.00 | 73 | 1014.4 |
| 20260901162306 | 30 | 255 | 3.2 | 8.0 | 0.00 | 0.00 | 0.00 | 73 | 1014.5 |
| 20260901161807 | 30 | 240 | 4.8 | 11.3 | 0.00 | 0.00 | 0.00 | 73 | 1014.6 |
| 20260901161306 | 31 | 221 | 4.8 | 11.3 | 0.00 | 0.00 | 0.00 | 72 | 1014.7 |
| 20260901160806 | 31 | 239 | 4.8 | 16.1 | 0.00 | 0.00 | 0.00 | 74 | 1014.6 |
| 20260901155806 | 30 | 187 | 8.0 | 16.1 | 0.00 | 0.00 | 0.00 | 76 | 1014.6 |
| 20260901155307 | 30 | 210 | 6.4 | 11.3 | 0.00 | 0.00 | 0.00 | 76 | 1014.6 |
| 20260901153806 | 28 | 214 | 4.8 | 11.3 | 0.00 | 0.00 | 0.00 | 79 | 1014.8 |
| 20260901152306 | 28 | 205 | 9.7 | 16.1 | 0.00 | 0.00 | 0.00 | 79 | 1014.7 |
| 20260901151306 | 30 | 202 | 6.4 | 14.5 | 0.00 | 0.00 | 0.00 | 77 | 1014.7 |
| 20260901145806 | 29 | 221 | 6.4 | 12.9 | 0.00 | 0.00 | 0.00 | 78 | 1014.7 |
| 20260901144806 | 28 | 234 | 8.0 | 11.3 | 0.00 | 0.00 | 0.00 | 80 | 1014.6 |
| 20260901141806 | 28 | 234 | 8.0 | 11.3 | 0.00 | 0.00 | 0.00 | 83 | 1014.7 |
| 20260901141307 | 27 | 252 | 4.8 | 9.7 | 0.00 | 0.00 | 0.00 | 84 | 1014.7 |
| 20260901140306 | 27 | 230 | 4.8 | 8.0 | 0.00 | 0.00 | 0.00 | 85 | 1014.7 |
| 20260901133806 | 26 | 236 | 4.8 | 8.0 | 0.00 | 0.00 | 0.00 | 86 | 1014.9 |
| 20260901132807 | 26 | 255 | 4.8 | 9.7 | 0.00 | 0.00 | 0.00 | 87 | 1014.9 |
| 20260901131806 | 26 | 229 | 4.8 | 12.9 | 0.00 | 0.00 | 0.00 | 87 | 1014.9 |
| 20260901130306 | 26 | 227 | 4.8 | 12.9 | 0.00 | 0.00 | 0.00 | 88 | 1015.0 |
| 20260901125309 | 25 | 245 | 4.8 | 8.0 | 0.00 | 0.00 | 0.00 | 89 | 1015.3 |
| 20260901124306 | 25 | 249 | 4.8 | 9.7 | 0.00 | 0.00 | 0.00 | 89 | 1015.3 |
| 20260901123806 | 25 | 242 | 4.8 | 11.3 | 0.00 | 0.00 | 0.00 | 89 | 1015.4 |
| 20260901122306 | 25 | 256 | 4.8 | 9.7 | 0.00 | 0.00 | 0.00 | 89 | 1015.4 |
| 20260901121806 | 25 | 245 | 4.8 | 14.5 | 0.00 | 0.00 | 0.00 | 89 | 1015.4 |
| 20260901121306 | 25 | 244 | 4.8 | 9.7 | 0.00 | 0.00 | 0.00 | 89 | 1015.4 |
| 20260901120806 | 25 | 241 | 4.8 | 11.3 | 0.00 | 0.00 | 0.00 | 89 | 1015.4 |
| 20260901120307 | 25 | 246 | 4.8 | 14.5 | 0.00 | 0.00 | 0.00 | 89 | 1015.4 |
| 20260901114806 | 25 | 247 | 6.4 | 12.9 | 0.00 | 0.00 | 0.00 | 89 | 1015.5 |
| 20260901114306 | 25 | 247 | 4.8 | 9.7 | 0.00 | 0.00 | 0.00 | 90 | 1015.5 |
| 20260901112806 | 24 | 248 | 4.8 | 9.7 | 0.00 | 0.00 | 0.00 | 90 | 1015.3 |
| 20260901112306 | 24 | 249 | 3.2 | 9.7 | 0.00 | 0.00 | 0.00 | 90 | 1015.4 |
| 20260901111309 | 24 | 260 | 4.8 | 8.0 | 0.00 | 0.00 | 0.00 | 90 | 1015.6 |
| 20260901110807 | 24 | 259 | 3.2 | 8.0 | 0.00 | 0.00 | 0.00 | 90 | 1015.6 |
| 20260901110306 | 24 | 250 | 4.8 | 8.0 | 0.00 | 0.00 | 0.00 | 90 | 1015.5 |
| 20260901104307 | 25 | 269 | 4.8 | 9.7 | 0.00 | 0.00 | 0.00 | 90 | 1015.2 |
| 20260901102306 | 25 | 242 | 8.0 | 16.1 | 0.00 | 0.00 | 0.00 | 90 | 1015.0 |
| 20260901101807 | 25 | 252 | 8.0 | 11.3 | 0.00 | 0.00 | 0.00 | 90 | 1014.9 |
| 20260901101306 | 25 | 240 | 4.8 | 11.3 | 0.00 | 0.00 | 0.00 | 90 | 1014.9 |
| 20260901100307 | 25 | 252 | 4.8 | 9.7 | 0.00 | 0.00 | 0.00 | 89 | 1014.9 |
| 20260901095807 | 25 | 244 | 3.2 | 11.3 | 0.00 | 0.00 | 0.00 | 89 | 1014.9 |
| 20260901094806 | 25 | 230 | 3.2 | 4.8 | 0.00 | 0.00 | 0.00 | 89 | 1015.0 |
| 20260901093306 | 25 | 239 | 6.4 | 12.9 | 0.00 | 0.00 | 0.00 | 89 | 1015.2 |
| 20260901092808 | 25 | 233 | 6.4 | 14.5 | 0.00 | 0.00 | 0.00 | 89 | 1015.2 |
| 20260901091806 | 25 | 244 | 4.8 | 11.3 | 0.00 | 0.00 | 0.00 | 89 | 1015.2 |
| 20260901090806 | 25 | 227 | 4.8 | 11.3 | 0.00 | 0.00 | 0.00 | 89 | 1015.1 |
| 20260901090306 | 25 | 237 | 4.8 | 14.5 | 0.00 | 0.00 | 0.00 | 89 | 1015.2 |
| 20260901085806 | 25 | 231 | 6.4 | 11.3 | 0.00 | 0.00 | 0.00 | 89 | 1015.3 |
| 20260901084806 | 25 | 234 | 6.4 | 14.5 | 0.00 | 0.00 | 0.00 | 89 | 1015.4 |
| 20260901083806 | 25 | 235 | 9.7 | 19.3 | 0.00 | 0.00 | 0.00 | 89 | 1015.4 |
| 20260901082806 | 25 | 238 | 8.0 | 14.5 | 0.00 | 0.03 | 0.00 | 89 | 1015.4 |
| 20260901082306 | 25 | 240 | 4.8 | 16.1 | 0.00 | 0.03 | 0.00 | 89 | 1015.3 |
| 20260901080806 | 24 | 235 | 9.7 | 19.3 | 0.00 | 0.03 | 0.00 | 89 | 1015.3 |
| 20260901074806 | 24 | 233 | 6.4 | 14.5 | 0.00 | 0.03 | 0.00 | 89 | 1015.5 |
| 20260901073306 | 24 | 219 | 4.8 | 14.5 | 0.00 | 0.03 | 0.00 | 89 | 1015.6 |
| 20260901072806 | 24 | 224 | 3.2 | 8.0 | 0.00 | 0.03 | 0.00 | 89 | 1015.6 |
| 20260901071306 | 24 | 228 | 3.2 | 9.7 | 0.00 | 0.03 | 0.00 | 89 | 1015.7 |
| 20260901070806 | 24 | 235 | 3.2 | 9.7 | 0.00 | 0.03 | 0.00 | 89 | 1015.8 |
| 20260901070306 | 24 | 235 | 4.8 | 9.7 | 0.00 | 0.03 | 0.00 | 89 | 1015.8 |
| 20260901065306 | 24 | 233 | 3.2 | 11.3 | 0.00 | 0.03 | 0.00 | 89 | 1015.8 |
| 20260901064806 | 24 | 212 | 4.8 | 9.7 | 0.00 | 0.03 | 0.00 | 88 | 1015.8 |
| 20260901064306 | 24 | 227 | 6.4 | 11.3 | 0.00 | 0.03 | 0.00 | 88 | 1015.9 |
| 20260901063305 | 24 | 213 | 3.2 | 9.7 | 0.00 | 0.03 | 0.00 | 88 | 1016.1 |
| 20260901062806 | 24 | 239 | 8.0 | 14.5 | 0.00 | 0.03 | 0.00 | 88 | 1016.1 |
| 20260901062310 | 24 | 218 | 8.0 | 12.9 | 0.00 | 0.03 | 0.00 | 88 | 1016.2 |
| 20260901061306 | 24 | 218 | 4.8 | 11.3 | 0.00 | 0.03 | 0.00 | 88 | 1016.2 |
| 20260901060805 | 24 | 217 | 3.2 | 9.7 | 0.00 | 0.03 | 0.00 | 88 | 1016.4 |
| 20260901060306 | 24 | 207 | 4.8 | 8.0 | 0.00 | 0.03 | 0.00 | 88 | 1016.4 |
| 20260901055806 | 24 | 202 | 3.2 | 8.0 | 0.00 | 0.03 | 0.00 | 87 | 1016.5 |
| 20260901054305 | 24 | 228 | 4.8 | 11.3 | 0.00 | 0.13 | 0.00 | 87 | 1016.7 |
| 20260901051306 | 24 | 214 | 4.8 | 11.3 | 0.00 | 0.41 | 0.00 | 87 | 1016.8 |
| 20260901050306 | 23 | 221 | 4.8 | 14.5 | 0.00 | 0.43 | 0.00 | 87 | 1016.7 |
| 20260901045806 | 23 | 212 | 4.8 | 16.1 | 0.00 | 0.43 | 0.00 | 87 | 1016.8 |
| 20260901045307 | 23 | 207 | 4.8 | 11.3 | 0.00 | 0.43 | 0.00 | 87 | 1016.8 |
| 20260901044306 | 23 | 215 | 4.8 | 9.7 | 0.00 | 0.61 | 0.00 | 87 | 1016.9 |
| 20260901043806 | 23 | 219 | 4.8 | 8.0 | 0.00 | 0.86 | 0.00 | 87 | 1017.0 |
| 20260901041805 | 23 | 207 | 3.2 | 8.0 | 0.00 | 1.37 | 0.00 | 86 | 1017.0 |
| 20260901041306 | 23 | 208 | 4.8 | 9.7 | 0.00 | 1.37 | 0.00 | 86 | 1017.0 |
| 20260901040838 | 23 | 205 | 4.8 | 9.7 | 0.00 | 1.37 | 0.00 | 86 | 1017.1 |
| 20260901033808 | 23 | 198 | 3.2 | 9.7 | 0.00 | 1.37 | 1.37 | 86 | 1017.0 |
| 20260901031305 | 23 | 200 | 4.8 | 9.7 | 0.00 | 1.37 | 1.37 | 86 | 1017.4 |
| 20260901030806 | 23 | 209 | 4.8 | 8.0 | 0.00 | 1.37 | 1.37 | 86 | 1017.3 |
| 20260901025308 | 23 | 199 | 4.8 | 11.3 | 0.00 | 1.37 | 1.37 | 86 | 1017.3 |
| 20260901023306 | 23 | 195 | 6.4 | 11.3 | 0.00 | 1.37 | 1.37 | 86 | 1017.5 |
| 20260901022306 | 23 | 203 | 4.8 | 11.3 | 0.00 | 1.37 | 1.37 | 85 | 1017.5 |
| 20260901021806 | 23 | 203 | 4.8 | 9.7 | 0.00 | 1.37 | 1.37 | 85 | 1017.7 |
| 20260901020306 | 23 | 196 | 4.8 | 8.0 | 0.00 | 1.37 | 1.37 | 85 | 1017.6 |
| 20260901015306 | 23 | 185 | 3.2 | 8.0 | 0.00 | 1.37 | 1.37 | 85 | 1017.5 |
| 20260901014805 | 23 | 205 | 3.2 | 8.0 | 0.00 | 1.37 | 1.37 | 85 | 1017.4 |
| 20260901013806 | 23 | 173 | 3.2 | 4.8 | 0.00 | 1.37 | 1.37 | 84 | 1017.5 |
| 20260901013306 | 23 | 197 | 4.8 | 8.0 | 0.00 | 1.37 | 1.37 | 84 | 1017.7 |
| 20260901012806 | 23 | 190 | 3.2 | 8.0 | 0.00 | 1.37 | 1.37 | 84 | 1017.7 |
| 20260901012306 | 23 | 187 | 3.2 | 4.8 | 0.00 | 1.37 | 1.37 | 84 | 1017.7 |
| 20260901011806 | 23 | 184 | 3.2 | 8.0 | 0.00 | 1.37 | 1.37 | 83 | 1017.7 |
| 20260901011305 | 23 | 204 | 3.2 | 8.0 | 0.00 | 1.37 | 1.37 | 83 | 1017.7 |
| 20260901010805 | 23 | 173 | 3.2 | 4.8 | 0.00 | 1.37 | 1.37 | 83 | 1017.7 |
| 20260901010306 | 23 | 169 | 4.8 | 9.7 | 0.00 | 1.37 | 1.37 | 83 | 1017.6 |
| 20260901005806 | 23 | 193 | 3.2 | 4.8 | 0.00 | 1.37 | 1.37 | 82 | 1017.4 |
| 20260901004806 | 23 | 196 | 3.2 | 8.0 | 0.00 | 1.37 | 1.37 | 82 | 1017.5 |
| 20260901001306 | 23 | 187 | 1.6 | 8.0 | 0.00 | 1.37 | 1.37 | 83 | 1017.3 |
| 20260901000306 | 23 | 182 | 1.6 | 4.8 | 0.00 | 1.37 | 1.37 | 82 | 1017.2 |
| 20260831235306 | 23 | 170 | 3.2 | 8.0 | 0.00 | 1.37 | 1.37 | 82 | 1017.3 |
| 20260831234306 | 23 | 183 | 3.2 | 4.8 | 0.00 | 1.37 | 1.37 | 82 | 1017.4 |
| 20260831233805 | 23 | 191 | 4.8 | 8.0 | 0.00 | 1.37 | 1.37 | 82 | 1017.4 |
| 20260831231307 | 23 | 184 | 1.6 | 4.8 | 0.00 | 1.37 | 1.37 | 82 | 1017.5 |
| 20260831225805 | 23 | 167 | 1.6 | 4.8 | 0.00 | 1.37 | 1.37 | 81 | 1017.5 |
| 20260831225306 | 23 | 174 | 1.6 | 4.8 | 0.00 | 1.37 | 1.37 | 81 | 1017.6 |
| 20260831224306 | 23 | 165 | 1.6 | 4.8 | 0.00 | 1.37 | 1.37 | 81 | 1017.7 |
| 20260831223306 | 23 | 163 | 1.6 | 4.8 | 0.00 | 1.37 | 1.37 | 81 | 1017.8 |
| 20260831222805 | 23 | 163 | 1.6 | 4.8 | 0.00 | 1.37 | 1.37 | 81 | 1017.8 |
| 20260831221806 | 23 | 150 | 1.6 | 4.8 | 0.00 | 1.37 | 1.37 | 81 | 1017.8 |
| 20260831220305 | 23 | 137 | 1.6 | 4.8 | 0.00 | 1.37 | 1.37 | 81 | 1017.9 |
| 20260831215805 | 23 | 126 | 1.6 | 4.8 | 0.00 | 1.37 | 1.37 | 81 | 1017.8 |
| 20260831214805 | 23 | 94 | 3.2 | 9.7 | 0.00 | 1.37 | 1.37 | 80 | 1017.7 |
| 20260831214306 | 23 | 99 | 6.4 | 9.7 | 0.00 | 1.37 | 1.37 | 80 | 1017.7 |
| 20260831213805 | 23 | 109 | 8.0 | 11.3 | 0.00 | 1.37 | 1.37 | 79 | 1017.7 |
| 20260831211807 | 23 | 109 | 9.7 | 14.5 | 0.00 | 1.37 | 1.37 | 80 | 1017.8 |
| 20260831211306 | 23 | 105 | 8.0 | 14.5 | 0.00 | 1.37 | 1.37 | 79 | 1017.9 |
| 20260831204305 | 23 | 91 | 8.0 | 14.5 | 0.00 | 1.37 | 1.37 | 79 | 1018.1 |
| 20260831200806 | 23 | 97 | 6.4 | 11.3 | 0.00 | 1.37 | 1.37 | 79 | 1018.5 |
| 20260831200305 | 23 | 100 | 4.8 | 11.3 | 0.00 | 1.37 | 1.37 | 79 | 1018.5 |
| 20260831195306 | 23 | 92 | 9.7 | 11.3 | 0.00 | 1.37 | 1.37 | 78 | 1018.5 |
| 20260831194306 | 24 | 101 | 8.0 | 11.3 | 0.00 | 1.37 | 1.37 | 77 | 1018.4 |
| 20260831191306 | 24 | 77 | 8.0 | 14.5 | 0.00 | 1.37 | 1.37 | 77 | 1018.7 |
| 20260831190806 | 24 | 92 | 6.4 | 14.5 | 0.00 | 1.37 | 1.37 | 78 | 1018.7 |
| 20260831190305 | 24 | 66 | 8.0 | 12.9 | 0.00 | 1.37 | 1.37 | 77 | 1018.7 |
| 20260831185306 | 25 | 56 | 8.0 | 14.5 | 0.00 | 1.37 | 1.37 | 77 | 1018.8 |
| 20260831184805 | 25 | 47 | 9.7 | 16.1 | 0.00 | 1.37 | 1.37 | 76 | 1018.7 |
| 20260831183805 | 25 | 44 | 8.0 | 16.1 | 0.00 | 1.37 | 1.37 | 76 | 1018.8 |
| 20260831183305 | 25 | 78 | 8.0 | 16.1 | 0.00 | 1.37 | 1.37 | 76 | 1018.8 |
| 20260831182806 | 25 | 76 | 8.0 | 14.5 | 0.00 | 1.37 | 1.37 | 75 | 1018.8 |
| 20260831182306 | 26 | 84 | 6.4 | 14.5 | 0.00 | 1.37 | 1.37 | 73 | 1018.9 |
| 20260831180305 | 25 | 85 | 8.0 | 14.5 | 0.00 | 1.37 | 1.37 | 75 | 1018.9 |